Flag for Germany Weather past 2 weeks in Minden, North Rhine-Westphalia, Germany

Now
43 °F

Passing clouds.


Feels Like: 37 °F
Forecast: 40 / 51 °F
Wind: 9 mph from West

Location: Bueckeburg

Current Time: Mar 27, 2015 at 6:16:09 AM

Latest Report: Mar 27, 2015 at 5:20 AM


Visibility: N/A

Pressure: 29.77 "Hg

Humidity: 87%

Dew point: 39 °F

Location of MindenLocation

Historic Weather in Minden — Graph

°F

Minden temperature yesterday

Maximum temperature yesterday: 46 °F (at 3:20 PM)
Minimum temperature yesterday: 41 °F (at 3:20 AM)
Average temperature yesterday: 43 °F

Past Weeks' High & Low Weather Summary

 TemperatureHumidityPressure
High63 °F (Mar 25, 3:20 PM)100% (Mar 12, 5:48 AM)30.51 "Hg (Mar 12, 5:48 AM)
Low30 °F (Mar 12, 5:20 AM)39% (Mar 25, 3:20 PM)29.62 "Hg (Mar 25, 3:20 PM)
Average42 °F79%30.16 "Hg
* Reported Mar 12 5:20 AM — Mar 27 5:20 AM, Minden, Weather by CustomWeather, © 2015

Note: Actual official high and low records may vary slightly from our data, if they occured in-between our weather recording intervals... More about our weather records

Advertising

Minden weather history for previous 24 hours

 ConditionsComfort  
Time TempWeatherWind HumidityBarometerVisibility
5:20 AM
Fri, Mar 27
43 °FPassing clouds.9 mph87%29.77 "HgN/A
4:20 AM43 °FPartly cloudy.9 mph87%29.77 "HgN/A
3:20 AM43 °FPassing clouds.12 mph87%29.74 "HgN/A
2:20 AM43 °FPassing clouds.10 mph87%29.74 "HgN/A
1:20 AM41 °FPassing clouds.9 mph87%29.74 "HgN/A
12:20 AM43 °FPassing clouds.13 mph76%29.74 "HgN/A
11:20 PM
Thu, Mar 26
43 °FPassing clouds.8 mph76%29.71 "HgN/A
10:20 PM41 °FLight rain. Passing clouds.8 mph87%29.71 "HgN/A
9:20 PM41 °FLight rain. Passing clouds.7 mph87%29.74 "HgN/A
8:20 PM41 °FLight rain. Fog.2 mph87%29.74 "Hg3 mi
7:20 PM41 °FLight rain. Fog.12 mph87%29.74 "Hg3 mi
6:20 PM46 °FLight rain. Partly sunny.9 mph53%29.71 "HgN/A
5:20 PM46 °FPartly sunny.10 mph57%29.71 "HgN/A
4:20 PM46 °FPartly sunny.8 mph62%29.71 "HgN/A
3:20 PM46 °FPartly sunny.8 mph66%29.74 "HgN/A
2:20 PM45 °FBroken clouds.9 mph71%29.74 "HgN/A
1:20 PM43 °FPartly sunny.12 mph76%29.74 "HgN/A
12:20 PM45 °FPartly sunny.8 mph66%29.77 "HgN/A
11:20 AM43 °FBroken clouds.5 mph71%29.77 "HgN/A
10:20 AM41 °FBroken clouds.7 mph87%29.77 "HgN/A
10:00 AM41 °FLight rain. Broken clouds.5 mph87%29.77 "Hg6 mi
9:46 AM41 °FLight rain. Broken clouds.5 mph81%29.77 "Hg4 mi
9:20 AM41 °FBroken clouds.7 mph81%29.77 "Hg6 mi
8:20 AM41 °FBroken clouds.5 mph81%29.77 "HgN/A
7:20 AM41 °FPartly sunny.6 mph81%29.77 "HgN/A
6:20 AM41 °FBroken clouds.9 mph81%29.74 "HgN/A
Weather by CustomWeather, © 2015

See weather overviewHow to use our weather pages